| time (UTC) | temp C | wind direction | speed KPH | gust KPH | rain 1hr cm | rain 24hr cm | rain mn cm | humidity % | barometer mb |
| 20260509074540 | 12 | 180 | 19.3 | 29.0 | 0.00 | 0.00 | 0.00 | 71 | 1003.4 |
| 20260509073518 | 12 | 180 | 17.7 | 25.7 | 0.00 | 0.00 | 0.00 | 73 | 1003.4 |
| 20260509072519 | 12 | 180 | 22.5 | 29.0 | 0.00 | 0.00 | 0.00 | 73 | 1003.6 |
| 20260509071519 | 12 | 180 | 17.7 | 29.0 | 0.00 | 0.00 | 0.00 | 75 | 1003.8 |
| 20260509070518 | 12 | 180 | 17.7 | 24.1 | 0.00 | 0.00 | 0.00 | 77 | 1004.1 |
| 20260509065518 | 12 | 180 | 14.5 | 20.9 | 0.00 | 0.00 | 0.00 | 77 | 1004.1 |
| 20260509064518 | 12 | 180 | 12.9 | 20.9 | 0.00 | 0.00 | 0.00 | 77 | 1004.2 |
| 20260509063518 | 11 | 180 | 12.9 | 20.9 | 0.00 | 0.00 | 0.00 | 76 | 1004.1 |
| 20260509062519 | 11 | 180 | 12.9 | 22.5 | 0.00 | 0.00 | 0.00 | 72 | 1004.3 |
| 20260509061519 | 11 | 180 | 11.3 | 16.1 | 0.00 | 0.00 | 0.00 | 65 | 1004.5 |
| 20260509060518 | 11 | 180 | 8.0 | 12.9 | 0.00 | 0.00 | 0.00 | 60 | 1004.5 |
| 20260509055518 | 11 | 158 | 9.7 | 14.5 | 0.00 | 0.00 | 0.00 | 57 | 1004.5 |
| 20260509054538 | 11 | 158 | 9.7 | 14.5 | 0.00 | 0.00 | 0.00 | 54 | 1004.6 |
| 20260509053538 | 10 | 180 | 9.7 | 16.1 | 0.00 | 0.00 | 0.00 | 54 | 1004.7 |
| 20260509052518 | 10 | 158 | 9.7 | 14.5 | 0.00 | 0.00 | 0.00 | 54 | 1004.7 |
| 20260509051518 | 10 | 158 | 9.7 | 12.9 | 0.00 | 0.00 | 0.00 | 53 | 1004.6 |
| 20260509050518 | 10 | 158 | 8.0 | 11.3 | 0.00 | 0.00 | 0.00 | 52 | 1004.6 |
| 20260509045518 | 10 | 158 | 8.0 | 9.7 | 0.00 | 0.00 | 0.00 | 52 | 1004.7 |
| 20260509044518 | 11 | 158 | 8.0 | 14.5 | 0.00 | 0.00 | 0.00 | 51 | 1004.8 |
| 20260509043518 | 11 | 158 | 9.7 | 14.5 | 0.00 | 0.00 | 0.00 | 50 | 1004.9 |
| 20260509042518 | 11 | 158 | 8.0 | 14.5 | 0.00 | 0.00 | 0.00 | 49 | 1004.9 |
| 20260509041518 | 11 | 158 | 8.0 | 11.3 | 0.00 | 0.00 | 0.00 | 49 | 1004.9 |
| 20260509040519 | 11 | 158 | 8.0 | 11.3 | 0.00 | 0.00 | 0.00 | 48 | 1005.0 |
| 20260509035558 | 11 | 158 | 6.4 | 9.7 | 0.00 | 0.00 | 0.00 | 47 | 1005.1 |
| 20260509035018 | 11 | 158 | 6.4 | 11.3 | 0.00 | 0.00 | 0.00 | 47 | 1005.2 |
| 20260509034018 | 11 | 158 | 8.0 | 11.3 | 0.00 | 0.00 | 0.00 | 47 | 1005.2 |
| 20260509033018 | 11 | 158 | 8.0 | 11.3 | 0.00 | 0.00 | 0.00 | 46 | 1005.3 |
| 20260509032058 | 11 | 158 | 8.0 | 12.9 | 0.00 | 0.00 | 0.00 | 45 | 1005.3 |
| 20260509031039 | 12 | 158 | 8.0 | 12.9 | 0.00 | 0.00 | 0.00 | 45 | 1005.5 |
| 20260509030018 | 12 | 158 | 6.4 | 11.3 | 0.00 | 0.00 | 0.00 | 44 | 1005.6 |
| 20260509025018 | 12 | 158 | 6.4 | 9.7 | 0.00 | 0.00 | 0.00 | 43 | 1005.8 |
| 20260509024018 | 12 | 158 | 6.4 | 9.7 | 0.00 | 0.00 | 0.00 | 42 | 1005.8 |
| 20260509023017 | 12 | 158 | 6.4 | 9.7 | 0.00 | 0.00 | 0.00 | 42 | 1005.9 |
| 20260509022019 | 12 | 158 | 6.4 | 9.7 | 0.00 | 0.00 | 0.00 | 40 | 1005.9 |
| 20260509021018 | 13 | 158 | 6.4 | 8.0 | 0.00 | 0.00 | 0.00 | 39 | 1005.9 |
| 20260509020059 | 13 | 158 | 8.0 | 12.9 | 0.00 | 0.00 | 0.00 | 38 | 1005.9 |
| 20260509015017 | 13 | 158 | 8.0 | 11.3 | 0.00 | 0.00 | 0.00 | 38 | 1005.9 |
| 20260509014038 | 13 | 158 | 6.4 | 9.7 | 0.00 | 0.00 | 0.00 | 36 | 1005.7 |
| 20260509013017 | 13 | 158 | 4.8 | 8.0 | 0.00 | 0.00 | 0.00 | 36 | 1005.7 |
| 20260509012038 | 13 | 158 | 4.8 | 9.7 | 0.00 | 0.00 | 0.00 | 36 | 1005.7 |
| 20260509011018 | 14 | 158 | 6.4 | 8.0 | 0.00 | 0.00 | 0.00 | 35 | 1005.5 |
| 20260509010017 | 14 | 158 | 4.8 | 6.4 | 0.00 | 0.00 | 0.00 | 35 | 1005.5 |
| 20260509005017 | 15 | 158 | 4.8 | 6.4 | 0.00 | 0.00 | 0.00 | 35 | 1005.5 |
| 20260509004018 | 15 | 158 | 3.2 | 4.8 | 0.00 | 0.00 | 0.00 | 35 | 1005.6 |
| 20260509003017 | 15 | 158 | 3.2 | 4.8 | 0.00 | 0.00 | 0.00 | 35 | 1005.6 |
| 20260509002017 | 15 | 180 | 4.8 | 8.0 | 0.00 | 0.00 | 0.00 | 34 | 1005.6 |
| 20260509001017 | 15 | 180 | 6.4 | 11.3 | 0.00 | 0.00 | 0.00 | 35 | 1005.8 |
| 20260509000017 | 16 | 203 | 6.4 | 9.7 | 0.00 | 0.00 | 0.00 | 38 | 1006.0 |
| 20260508235017 | 16 | 203 | 8.0 | 12.9 | 0.00 | 0.00 | 0.00 | 35 | 1006.0 |
| 20260508234017 | 16 | 203 | 8.0 | 11.3 | 0.00 | 0.00 | 0.00 | 33 | 1006.2 |
| 20260508233018 | 16 | 225 | 9.7 | 12.9 | 0.00 | 0.00 | 0.00 | 34 | 1006.4 |
| 20260508232037 | 16 | 225 | 11.3 | 14.5 | 0.00 | 0.00 | 0.00 | 32 | 1006.4 |
| 20260508231017 | 16 | 225 | 9.7 | 12.9 | 0.00 | 0.00 | 0.00 | 35 | 1006.5 |
| 20260508230018 | 17 | 225 | 9.7 | 16.1 | 0.00 | 0.00 | 0.00 | 34 | 1006.6 |
| 20260508225018 | 17 | 225 | 9.7 | 14.5 | 0.00 | 0.00 | 0.00 | 34 | 1006.5 |
| 20260508224139 | 17 | 225 | 11.3 | 17.7 | 0.00 | 0.00 | 0.00 | 35 | 1006.5 |
| 20260508223017 | 17 | 225 | 11.3 | 17.7 | 0.00 | 0.00 | 0.00 | 34 | 1006.5 |
| 20260508222018 | 17 | 225 | 9.7 | 17.7 | 0.00 | 0.00 | 0.00 | 37 | 1006.6 |
| 20260508221017 | 17 | 225 | 9.7 | 19.3 | 0.00 | 0.00 | 0.00 | 37 | 1006.6 |
| 20260508220018 | 17 | 225 | 8.0 | 14.5 | 0.00 | 0.00 | 0.00 | 37 | 1006.6 |
| 20260508215017 | 17 | 293 | 8.0 | 14.5 | 0.00 | 0.00 | 0.00 | 38 | 1006.6 |
| 20260508214037 | 17 | 225 | 6.4 | 12.9 | 0.00 | 0.00 | 0.00 | 36 | 1006.6 |
| 20260508213017 | 17 | 225 | 4.8 | 12.9 | 0.00 | 0.00 | 0.00 | 38 | 1006.6 |
| 20260508212017 | 17 | 225 | 11.3 | 16.1 | 0.00 | 0.00 | 0.00 | 37 | 1006.8 |
| 20260508211017 | 17 | 248 | 6.4 | 11.3 | 0.00 | 0.00 | 0.00 | 36 | 1007.0 |
| 20260508210018 | 17 | 248 | 11.3 | 17.7 | 0.00 | 0.00 | 0.00 | 37 | 1006.9 |
| 20260508205017 | 17 | 225 | 9.7 | 17.7 | 0.00 | 0.00 | 0.00 | 40 | 1007.1 |
| 20260508204017 | 17 | 225 | 8.0 | 16.1 | 0.00 | 0.00 | 0.00 | 37 | 1007.1 |
| 20260508203019 | 17 | 225 | 11.3 | 19.3 | 0.00 | 0.00 | 0.00 | 38 | 1007.3 |
| 20260508202019 | 17 | 270 | 8.0 | 16.1 | 0.00 | 0.00 | 0.00 | 36 | 1007.4 |
| 20260508201019 | 17 | 293 | 6.4 | 12.9 | 0.00 | 0.00 | 0.00 | 38 | 1007.5 |
| 20260508200019 | 17 | 225 | 8.0 | 12.9 | 0.00 | 0.00 | 0.00 | 36 | 1007.7 |
| 20260508195059 | 17 | 270 | 6.4 | 17.7 | 0.00 | 0.00 | 0.00 | 39 | 1007.9 |
| 20260508194020 | 16 | 225 | 9.7 | 19.3 | 0.00 | 0.00 | 0.00 | 38 | 1007.8 |
| 20260508193018 | 17 | 270 | 6.4 | 12.9 | 0.00 | 0.00 | 0.00 | 38 | 1008.0 |
| 20260508192019 | 17 | 270 | 9.7 | 16.1 | 0.00 | 0.00 | 0.00 | 37 | 1008.1 |
| 20260508191019 | 17 | 270 | 6.4 | 14.5 | 0.00 | 0.00 | 0.00 | 38 | 1008.1 |
| 20260508190019 | 17 | 248 | 6.4 | 12.9 | 0.00 | 0.00 | 0.00 | 37 | 1008.2 |
| 20260508185017 | 16 | 225 | 12.9 | 20.9 | 0.00 | 0.00 | 0.00 | 36 | 1008.2 |
| 20260508184019 | 16 | 248 | 4.8 | 14.5 | 0.00 | 0.00 | 0.00 | 36 | 1008.4 |
| 20260508183018 | 16 | 225 | 11.3 | 20.9 | 0.00 | 0.00 | 0.00 | 35 | 1008.5 |
| 20260508182019 | 16 | 225 | 11.3 | 20.9 | 0.00 | 0.00 | 0.00 | 35 | 1008.5 |
| 20260508181020 | 16 | 203 | 16.1 | 24.1 | 0.00 | 0.00 | 0.00 | 37 | 1008.6 |
| 20260508180019 | 16 | 225 | 14.5 | 24.1 | 0.00 | 0.00 | 0.00 | 38 | 1008.7 |
| 20260508175020 | 16 | 203 | 8.0 | 19.3 | 0.00 | 0.00 | 0.00 | 34 | 1008.9 |
| 20260508174019 | 16 | 225 | 12.9 | 19.3 | 0.00 | 0.00 | 0.00 | 35 | 1009.1 |
| 20260508173018 | 16 | 293 | 6.4 | 19.3 | 0.00 | 0.00 | 0.00 | 38 | 1009.2 |
| 20260508172018 | 16 | 180 | 6.4 | 12.9 | 0.00 | 0.00 | 0.00 | 38 | 1009.2 |
| 20260508171018 | 16 | 293 | 6.4 | 17.7 | 0.00 | 0.00 | 0.00 | 39 | 1009.5 |
| 20260508170018 | 16 | 225 | 11.3 | 20.9 | 0.00 | 0.00 | 0.00 | 40 | 1009.6 |
| 20260508165018 | 16 | 158 | 3.2 | 8.0 | 0.00 | 0.00 | 0.00 | 46 | 1009.7 |
| 20260508164018 | 15 | 225 | 11.3 | 24.1 | 0.00 | 0.00 | 0.00 | 43 | 1009.9 |
| 20260508163019 | 15 | 225 | 6.4 | 17.7 | 0.00 | 0.00 | 0.00 | 42 | 1010.1 |
| 20260508162019 | 15 | 203 | 6.4 | 12.9 | 0.00 | 0.00 | 0.00 | 44 | 1010.1 |
| 20260508161018 | 15 | 225 | 8.0 | 16.1 | 0.00 | 0.00 | 0.00 | 44 | 1010.2 |
| 20260508160018 | 15 | 180 | 4.8 | 14.5 | 0.00 | 0.00 | 0.00 | 45 | 1010.3 |
| 20260508155019 | 15 | 225 | 8.0 | 12.9 | 0.00 | 0.00 | 0.00 | 49 | 1010.2 |
| 20260508154018 | 15 | 293 | 4.8 | 11.3 | 0.00 | 0.00 | 0.00 | 45 | 1010.3 |
| 20260508153019 | 14 | 180 | 8.0 | 14.5 | 0.00 | 0.00 | 0.00 | 46 | 1010.3 |
| 20260508152019 | 13 | 180 | 9.7 | 17.7 | 0.00 | 0.00 | 0.00 | 52 | 1010.3 |
| 20260508151019 | 13 | 203 | 6.4 | 16.1 | 0.00 | 0.00 | 0.00 | 49 | 1010.3 |
| 20260508150018 | 13 | 203 | 12.9 | 17.7 | 0.00 | 0.00 | 0.00 | 50 | 1010.4 |
| 20260508145038 | 13 | 225 | 9.7 | 17.7 | 0.00 | 0.00 | 0.00 | 58 | 1010.6 |
| 20260508144018 | 13 | 225 | 4.8 | 11.3 | 0.00 | 0.00 | 0.00 | 60 | 1010.5 |
| 20260508143018 | 12 | 180 | 6.4 | 14.5 | 0.00 | 0.00 | 0.00 | 66 | 1010.6 |
| 20260508142019 | 12 | 180 | 6.4 | 9.7 | 0.00 | 0.00 | 0.00 | 68 | 1010.7 |
| 20260508141018 | 12 | 180 | 4.8 | 14.5 | 0.00 | 0.00 | 0.00 | 72 | 1010.7 |
| 20260508140018 | 11 | 180 | 4.8 | 9.7 | 0.00 | 0.00 | 0.00 | 76 | 1010.7 |
| 20260508135018 | 11 | 180 | 6.4 | 12.9 | 0.00 | 0.00 | 0.00 | 77 | 1010.7 |
| 20260508134018 | 11 | 180 | 8.0 | 11.3 | 0.00 | 0.00 | 0.00 | 78 | 1010.7 |
| 20260508133018 | 10 | 180 | 6.4 | 12.9 | 0.00 | 0.00 | 0.00 | 78 | 1010.8 |
| 20260508132018 | 10 | 180 | 6.4 | 11.3 | 0.00 | 0.00 | 0.00 | 77 | 1010.8 |
| 20260508131018 | 9 | 180 | 6.4 | 11.3 | 0.00 | 0.00 | 0.00 | 77 | 1010.8 |
| 20260508130040 | 8 | 180 | 4.8 | 9.7 | 0.00 | 0.00 | 0.00 | 77 | 1010.9 |
| 20260508125018 | 8 | 180 | 4.8 | 8.0 | 0.00 | 0.00 | 0.00 | 77 | 1010.8 |
| 20260508124018 | 7 | 180 | 6.4 | 9.7 | 0.00 | 0.00 | 0.00 | 76 | 1010.9 |
| 20260508123018 | 6 | 180 | 4.8 | 9.7 | 0.00 | 0.00 | 0.00 | 75 | 1010.9 |
| 20260508122018 | 6 | 180 | 1.6 | 4.8 | 0.00 | 0.00 | 0.00 | 76 | 1010.7 |
| 20260508121018 | 6 | 158 | 1.6 | 3.2 | 0.00 | 0.00 | 0.00 | 76 | 1010.5 |
| 20260508120018 | 5 | 158 | 1.6 | 3.2 | 0.00 | 0.00 | 0.00 | 77 | 1010.4 |
| 20260508115018 | 5 | 180 | 3.2 | 6.4 | 0.00 | 0.00 | 0.00 | 77 | 1010.4 |
| 20260508114018 | 5 | 180 | 3.2 | 6.4 | 0.00 | 0.00 | 0.00 | 78 | 1010.3 |
| 20260508113024 | 5 | 158 | 4.8 | 6.4 | 0.00 | 0.00 | 0.00 | 78 | 1010.2 |
| 20260508112018 | 5 | 158 | 3.2 | 4.8 | 0.00 | 0.00 | 0.00 | 79 | 1010.1 |
| 20260508111037 | 5 | 158 | 4.8 | 6.4 | 0.00 | 0.00 | 0.00 | 79 | 1010.1 |
| 20260508110018 | 5 | 158 | 4.8 | 8.0 | 0.00 | 0.00 | 0.00 | 79 | 1010.1 |
| 20260508105018 | 5 | 158 | 4.8 | 6.4 | 0.00 | 0.00 | 0.00 | 79 | 1010.2 |
| 20260508104018 | 5 | 158 | 3.2 | 4.8 | 0.00 | 0.00 | 0.00 | 79 | 1009.9 |
| 20260508103017 | 5 | 158 | 1.6 | 3.2 | 0.00 | 0.00 | 0.00 | 79 | 1009.9 |
| 20260508102017 | 5 | 113 | 1.6 | 3.2 | 0.00 | 0.00 | 0.00 | 79 | 1009.8 |
| 20260508101057 | 6 | 113 | 3.2 | 3.2 | 0.00 | 0.00 | 0.00 | 79 | 1009.9 |
| 20260508100017 | 6 | 0.0 | 3.2 | 0.00 | 0.00 | 0.00 | 79 | 1010.0 | |
| 20260508095017 | 6 | 0.0 | 3.2 | 0.00 | 0.00 | 0.00 | 79 | 1010.0 | |
| 20260508094017 | 6 | 45 | 1.6 | 3.2 | 0.00 | 0.00 | 0.00 | 79 | 1010.1 |
| 20260508093017 | 5 | 45 | 1.6 | 4.8 | 0.00 | 0.00 | 0.00 | 79 | 1010.1 |
| 20260508092018 | 5 | 68 | 1.6 | 3.2 | 0.00 | 0.00 | 0.00 | 79 | 1010.1 |
| 20260508091017 | 5 | 135 | 3.2 | 4.8 | 0.00 | 0.00 | 0.00 | 79 | 1010.2 |
| 20260508090018 | 5 | 135 | 3.2 | 4.8 | 0.00 | 0.00 | 0.00 | 79 | 1010.1 |
| 20260508085038 | 5 | 135 | 3.2 | 6.4 | 0.00 | 0.00 | 0.00 | 79 | 1010.1 |
| 20260508084017 | 6 | 158 | 4.8 | 8.0 | 0.00 | 0.00 | 0.00 | 78 | 1010.2 |
| 20260508083017 | 6 | 158 | 4.8 | 8.0 | 0.00 | 0.00 | 0.00 | 78 | 1010.2 |
| 20260508082017 | 6 | 0.0 | 3.2 | 0.00 | 0.00 | 0.00 | 78 | 1010.2 | |
| 20260508081017 | 6 | 0.0 | 1.6 | 0.00 | 0.00 | 0.00 | 77 | 1010.2 | |
| 20260508080037 | 6 | 0.0 | 1.6 | 0.00 | 0.00 | 0.00 | 77 | 1010.3 |